Temperature
14 14 14 14 13 13 13 13 13 13 13 13 13 13 13 13 13 13 13 13 13 13 14 14 14 14 14 15 15 15 14 15 15 15 15 15 15 15 15 15 15 15 14
14 14 14 13 13 13 13 13 13 12 12 12 12 12 12 12 12 12 12 12 12 12 13 13 14 14 14 14 14 14 15 15 14 15 15 15 15 15 15 15 15 15 15
14 13 13 13 13 13 13 13 12 12 12 12 12 12 12 12 12 11 12 12 12 12 12 12 13 13 13 13 13 14 14 14 14 14 15 15 15 15 15 15 15 15 14
13 13 13 13 13 13 12 12 12 12 12 12 12 12 12 12 11 11 12 12 12 12 12 12 12 12 12 12 13 13 13 14 13 14 14 15 15 15 15 15 14 14 14
13 13 13 12 12 13 12 12 12 12 12 12 13 12 11 11 11 11 12 12 12 11 11 12 12 11 12 12 12 12 13 13 13 13 14 14 14 14 14 15 14 14 14
12 12 12 12 12 13 12 12 12 12 12 12 13 12 11 12 12 11 11 11 11 11 11 11 11 11 11 11 11 11 11 11 12 12 12 13 13 13 14 14 13 14 14
11 12 12 12 12 12 12 12 12 12 12 12 12 12 12 12 12 12 12 12 11 11 11 11 11 11 11 11 11 11 11 11 11 12 12 12 12 12 12 12 12 13 13
11 11 11 11 11 11 12 12 12 12 11 12 12 11 12 12 12 12 12 12 11 11 11 11 11 11 11 11 11 11 11 11 11 11 11 12 12 12 12 12 12 12 12
11 11 11 11 11 11 11 11 11 11 11 11 11 11 11 12 11 11 11 11 11 11 11 11 11 11 11 11 12 12 12 12 12 12 12 12 12 12 12 12 12 12 12
11 11 10 10 10 11 11 11 11 11 11 11 11 11 11 11 11 11 11 11 11 11 11 11 11 11 11 12 11 12 12 12 12 12 12 12 12 12 12 12 12 12 12
10 9 9 9 10 10 10 10 10 10 11 10 11 11 11 11 11 11 11 11 11 11 11 11 11 11 10 11 11 11 11 11 12 12 12 12 11 11 12 12 12 12 12
9 9 9 9 10 10 10 10 10 10 10 10 10 10 10 10 10 10 10 10 10 10 10 10 10 10 10 10 11 11 11 11 11 12 12 12 11 12 12 12 12 12 12
9 9 9 9 9 10 10 10 10 10 10 10 10 10 9 9 9 9 9 9 9 9 9 9 9 10 10 10 10 10 10 11 11 11 10 10 10 11 12 12 12 12 12
8 8 8 9 9 9 10 9 10 10 9 9 9 9 9 8 9 8 8 8 8 9 8 9 9 9 9 9 9 9 9 9 10 10 10 10 10 10 11 12 12 10 11
9 8 8 8 9 9 9 9 9 9 9 9 9 9 8 8 8 8 8 8 8 8 8 8 8 9 9 9 9 9 8 9 9 8 9 9 9 9 9 10 10 10 10
9 9 8 8 8 8 8 9 9 8 9 9 9 8 8 8 8 8 8 8 8 8 8 8 8 8 8 8 8 8 8 8 8 8 8 8 9 9 9 9 9 9 10
9 9 9 8 9 9 9 9 9 9 9 9 9 9 9 9 9 8 8 8 8 8 8 7 7 8 8 8 7 7 7 7 7 7 8 8 8 8 9 9 9 9 10
9 9 9 9 9 9 9 10 9 9 9 9 9 9 9 9 9 9 9 8 7 8 8 8 7 7 7 7 7 7 6 6 6 6 6 6 6 7 7 7 8 8 9
9 9 9 9 9 10 10 10 10 9 9 9 9 9 9 9 9 9 9 8 8 7 7 7 7 7 7 7 6 6 5 5 5 5 5 5 5 6 6 6 6 7 7
10 10 10 10 10 10 10 10 10 10 10 10 10 9 9 9 9 9 8 8 8 8 7 7 7 7 6 6 6 5 5 4 4 4 4 4 4 5 5 5 5 5 5
10 10 10 10 10 10 11 10 10 10 10 10 10 10 9 9 9 8 8 8 8 8 7 7 7 6 6 6 5 5 4 4 4 3 3 3 3 4 4 4 4 4 4
11 11 11 11 10 10 11 10 10 10 10 10 10 9 9 9 8 8 8 8 7 7 7 7 6 6 5 5 5 4 4 4 3 3 3 3 3 3 3 3 3 3 3
11 11 11 11 11 11 10 10 10 10 10 10 10 9 9 9 9 8 8 8 7 7 7 6 6 5 5 5 4 4 3 3 3 3 2 2 2 2 2 2 2 2 3
12 11 11 11 11 11 11 10 11 11 11 11 10 10 9 9 9 8 8 8 7 7 7 6 6 5 5 4 4 4 3 3 2 2 2 2 2 2 2 2 2 2 2
12 12 11 11 11 11 11 11 11 11 11 11 10 10 10 9 9 8 8 8 7 7 6 6 5 5 5 4 4 3 3 3 2 2 2 2 2 2 2 1 1 2 2
12 12 12 11 11 11 11 11 11 11 11 11 11 10 10 9 9 8 8 7 7 6 6 5 5 5 4 4 3 3 2 2 2 1 1 1 1 1 1 1 1 1 1
Wind_Speed
2 5 6 6 5 3 2 2 3 3 4 3 3 2 1 1 1 2 3 3 2 3 5 4 1 1 1 3 4 2 3 6 5 4 3 3 3 3 3 4 6 4 4
3 6 7 6 6 3 1 2 2 4 3 2 3 3 4 4 3 4 5 3 2 3 4 1 3 5 5 5 4 4 3 3 4 4 3 3 5 4 4 4 3 4 5
4 4 6 6 5 4 1 2 3 3 4 3 3 2 2 2 2 3 3 2 3 2 3 5 5 5 4 4 4 4 3 3 2 3 4 3 4 3 2 2 2 1 4
4 2 4 5 5 4 2 1 3 6 6 5 5 5 5 5 5 5 6 6 5 5 5 6 5 4 4 5 5 5 6 5 3 2 3 3 4 3 2 2 2 2 2
5 4 3 3 2 3 2 3 5 5 6 6 6 6 6 6 5 5 6 6 5 5 6 6 7 9 9 6 4 6 7 5 4 3 3 3 2 2 1 2 2 1 1
5 5 5 6 5 5 5 7 7 6 6 7 6 6 6 6 7 8 7 7 7 7 6 7 7 9 9 7 6 6 6 5 5 3 3 3 4 3 2 1 1 2 1
5 5 6 6 7 7 5 6 6 5 5 6 6 6 6 6 7 7 8 7 7 7 7 7 7 9 9 7 9 10 10 9 7 3 3 4 3 4 3 2 1 0 1
5 5 4 6 7 6 6 6 5 3 4 4 6 5 6 8 8 9 8 8 8 7 6 6 8 10 12 10 9 9 8 7 7 4 3 2 2 4 3 1 1 1 2
6 4 3 4 5 5 5 4 3 4 4 5 5 5 8 9 8 7 7 5 6 6 6 7 8 9 10 10 9 9 9 9 7 6 7 7 5 4 5 3 3 3 2
5 3 3 2 3 4 4 2 2 4 6 6 6 5 8 9 11 11 5 4 3 4 5 7 9 10 11 13 10 9 10 10 9 7 6 6 6 6 4 3 1 1 0
5 4 4 3 2 4 3 1 1 4 7 6 6 6 8 7 11 16 15 7 5 5 6 6 8 12 13 13 9 6 5 6 8 7 6 6 6 6 6 4 3 3 1
4 4 4 3 2 1 4 3 2 5 7 6 6 6 4 6 9 13 15 12 8 6 5 5 7 13 14 14 11 12 12 9 7 8 7 9 7 6 6 7 6 5 4
7 5 2 2 2 1 2 3 4 6 6 5 5 5 2 3 5 10 11 11 10 6 6 8 10 11 11 9 11 14 12 8 7 7 7 5 5 4 4 7 10 8 5
7 5 1 1 1 2 3 3 6 6 6 6 5 4 3 2 4 5 5 6 7 7 9 9 9 8 7 7 6 6 6 6 6 5 4 6 7 9 8 6 6 8 6
6 5 5 3 3 4 4 4 4 3 5 6 5 5 3 1 2 2 3 4 4 5 5 4 5 5 7 7 7 6 6 7 6 5 5 6 6 6 5 7 7 8 6
7 6 5 3 2 2 3 3 5 4 5 6 5 4 2 2 2 1 2 3 4 5 4 4 4 5 5 5 6 7 8 8 6 5 5 5 5 5 5 3 2 4 4
8 7 6 5 4 4 3 4 3 1 3 4 4 1 3 4 5 5 5 4 3 3 2 1 3 5 5 5 6 6 6 6 7 7 7 6 5 6 6 6 6 5 5
9 9 8 7 6 6 6 6 5 5 3 3 3 5 8 9 7 6 3 2 3 3 2 2 2 3 4 4 4 3 4 5 6 6 6 7 7 5 6 6 7 7 6
8 7 7 7 7 8 7 6 6 6 6 4 2 4 8 7 2 1 2 3 2 1 2 3 3 4 4 3 3 4 4 4 4 4 4 4 4 4 4 5 7 8 7
9 11 9 6 6 6 6 6 7 7 6 5 6 6 4 2 1 2 3 4 4 5 6 5 5 5 4 4 4 4 5 5 5 4 4 5 5 4 4 4 5 5 5
10 9 10 7 7 7 6 6 7 8 7 6 7 9 11 8 5 4 4 5 6 7 7 6 6 5 5 5 4 5 5 4 3 3 4 4 5 4 5 5 4 3 3
9 8 7 8 8 7 6 7 8 9 8 7 6 8 11 7 6 5 6 6 7 7 7 7 6 6 6 6 6 5 5 4 3 2 3 4 4 5 5 5 6 5 6
10 10 8 7 8 8 8 8 9 8 8 7 7 6 7 8 7 6 6 5 6 6 5 5 5 4 4 5 6 5 5 5 5 4 2 3 4 4 4 4 4 5 5
12 13 11 10 10 9 9 9 10 11 10 9 7 8 9 9 8 8 7 6 6 6 5 6 5 8 8 8 8 9 9 9 7 6 5 2 2 3 3 4 4 5 4
12 12 11 10 10 11 10 10 10 9 9 8 8 8 9 9 8 8 6 6 7 7 6 7 8 9 12 12 13 13 12 11 8 6 4 2 1 2 3 3 4 4 4
12 11 11 10 10 11 11 11 11 11 10 9 8 8 9 9 9 8 7 7 8 8 8 6 9 12 14 16 15 15 13 10 7 5 3 1 2 3 4 5 6 5 4
Wind_Direction
147 126 136 154 162 165 182 238 262 269 272 288 292 290 299 325 1 307 310 297 270 265 272 280 271 115 326 355 352 338 195 200 216 252 247 232 208 185 157 158 150 170 202
50 125 127 138 138 132 175 242 295 318 291 274 278 306 322 319 334 306 294 295 266 252 239 198 46 49 28 7 338 333 338 270 223 248 260 231 221 199 186 184 173 184 216
32 152 156 149 147 157 197 312 349 45 69 48 60 58 31 34 29 356 342 1 3 56 67 51 39 43 28 358 351 347 330 308 263 243 257 241 236 203 197 190 177 187 238
37 83 146 169 177 186 216 315 80 96 92 72 58 55 47 35 28 22 39 49 53 59 57 59 46 30 14 356 2 0 353 356 344 311 285 274 253 235 175 167 167 205 233
72 74 100 159 203 190 162 127 123 103 85 74 63 48 35 31 13 11 49 52 52 69 57 44 28 11 4 353 360 359 354 359 349 346 338 340 327 322 254 168 147 172 34
86 77 65 74 70 80 116 121 120 115 97 83 71 52 29 13 5 56 74 68 56 64 51 29 15 4 356 5 352 349 344 359 360 352 341 352 353 340 337 357 155 129 125
98 85 83 91 67 67 86 103 103 106 113 104 89 62 32 6 17 67 78 75 69 66 61 43 34 17 20 32 27 21 9 16 25 25 23 352 340 349 343 349 13 148 215
129 123 111 92 94 95 88 83 79 77 103 104 86 65 41 7 21 79 83 83 73 64 62 60 49 34 28 37 38 20 1 353 352 4 22 337 330 335 346 339 357 46 34
127 123 128 124 119 117 110 98 82 81 99 104 96 66 52 19 27 91 92 84 75 46 19 22 38 44 25 33 40 20 10 359 345 331 292 274 280 350 4 6 27 41 5
133 153 132 152 169 142 140 145 65 91 107 103 91 67 61 40 30 37 65 94 75 39 17 15 28 39 42 36 34 21 19 353 350 11 3 335 328 339 13 63 64 66 41
165 154 124 93 172 189 186 212 96 103 116 116 102 73 58 46 43 49 50 51 60 55 28 7 4 23 32 31 48 40 359 327 347 18 29 25 358 336 325 303 253 195 185
143 140 113 64 11 195 181 187 152 125 125 127 112 87 54 38 47 53 59 58 53 54 23 356 354 9 18 14 11 13 27 26 7 13 21 20 1 342 334 331 302 271 233
118 114 105 83 357 359 148 145 136 135 130 127 119 116 85 29 26 37 39 40 38 48 4 350 359 8 14 16 13 9 11 20 29 26 15 8 314 317 1 16 5 339 302
149 147 234 228 16 67 73 99 134 139 136 141 146 145 135 17 19 26 35 28 15 23 4 346 347 338 0 4 11 15 13 17 21 14 6 1 1 6 9 22 21 341 333
166 174 205 190 132 95 72 51 91 122 161 159 171 164 146 75 30 29 26 16 11 348 336 349 355 354 3 359 356 2 15 22 24 13 13 22 18 3 358 16 1 325 303
172 184 200 202 191 159 137 87 57 72 75 79 93 134 178 193 170 230 270 320 347 353 28 13 345 353 5 5 16 21 31 23 7 14 22 10 12 5 358 359 294 279 286
182 187 194 203 213 204 177 171 159 99 52 69 86 118 234 260 264 267 276 312 342 7 54 31 10 31 44 39 46 53 47 25 12 16 21 16 19 21 36 33 11 348 342
195 193 190 199 210 215 206 194 186 186 203 242 225 236 257 271 291 312 317 359 5 3 65 130 109 86 79 74 69 76 73 62 54 35 16 9 12 27 30 23 18 8 351
195 203 200 201 209 218 215 194 193 195 204 207 199 244 255 269 297 194 189 164 154 197 126 132 142 139 132 115 91 75 59 54 53 55 31 21 2 13 28 27 14 4 360
202 205 192 204 208 210 205 187 193 194 200 204 201 205 205 205 244 195 188 178 172 174 174 176 170 164 152 136 119 104 88 67 60 56 34 7 354 3 360 21 46 19 351
204 206 191 191 199 196 183 177 172 166 182 198 205 207 193 188 212 222 216 197 196 187 182 182 173 168 162 143 132 128 121 107 77 64 49 24 11 7 348 339 4 58 8
205 209 203 196 200 199 183 172 173 177 183 187 206 215 199 190 211 216 214 207 207 198 191 185 187 181 174 167 159 154 146 145 135 80 47 29 21 12 359 355 1 0 339
205 209 206 202 191 192 192 187 189 192 193 195 196 200 191 204 216 225 223 215 214 198 196 190 184 184 175 175 177 167 162 160 150 127 78 31 15 4 351 339 341 347 346
197 201 204 210 203 192 192 197 199 200 201 200 194 199 198 206 214 224 224 204 189 190 182 178 167 168 163 163 165 163 160 156 151 137 129 110 20 352 340 334 330 326 330
195 193 197 199 201 203 198 198 207 212 210 207 200 202 201 203 212 221 215 193 176 175 175 174 176 178 175 172 170 169 170 164 156 151 136 122 58 352 331 316 318 320 320
196 195 195 198 202 204 204 203 208 215 217 216 204 198 198 203 209 208 194 184 181 185 185 179 181 174 172 175 178 176 174 172 167 163 135 79 358 348 338 326 322 316 305
Height
1501 1502 1505 1505 1506 1507 1505 1503 1502 1500 1498 1496 1495 1493 1491 1490 1490 1490 1488 1489 1489 1487 1487 1487 1486 1485 1485 1484 1482 1480 1482 1483 1479 1478 1479 1479 1478 1479 1479 1478 1478 1478 1478
1503 1503 1504 1504 1503 1503 1503 1501 1498 1497 1497 1495 1494 1492 1490 1490 1489 1489 1488 1487 1488 1487 1486 1485 1484 1483 1483 1481 1481 1480 1478 1478 1476 1474 1475 1476 1476 1475 1476 1476 1477 1477 1479
1503 1504 1503 1503 1502 1501 1500 1498 1497 1497 1496 1495 1493 1492 1490 1489 1488 1488 1488 1486 1486 1486 1485 1483 1482 1482 1481 1479 1477 1476 1474 1473 1472 1472 1472 1473 1473 1471 1472 1472 1474 1476 1478
1500 1501 1500 1501 1501 1500 1499 1498 1498 1497 1497 1496 1494 1492 1490 1489 1488 1488 1487 1486 1486 1486 1484 1482 1481 1480 1479 1477 1475 1473 1470 1470 1471 1470 1468 1468 1468 1468 1468 1469 1472 1475 1476
1498 1498 1498 1498 1499 1499 1499 1498 1499 1498 1497 1496 1495 1493 1491 1490 1490 1489 1488 1487 1487 1486 1485 1482 1480 1480 1478 1476 1474 1472 1471 1468 1469 1469 1467 1465 1464 1465 1465 1466 1469 1473 1473
1495 1496 1496 1496 1497 1499 1499 1498 1499 1498 1497 1497 1497 1495 1494 1493 1492 1490 1489 1488 1487 1486 1485 1483 1482 1481 1480 1478 1477 1474 1473 1470 1468 1468 1467 1465 1463 1463 1463 1464 1466 1469 1469
1494 1495 1495 1495 1496 1498 1499 1498 1499 1499 1499 1499 1498 1497 1497 1496 1494 1493 1491 1490 1489 1488 1488 1487 1486 1484 1481 1480 1478 1476 1475 1472 1470 1468 1466 1467 1465 1464 1463 1464 1465 1466 1468
1494 1495 1496 1495 1494 1496 1497 1498 1499 1500 1500 1499 1499 1498 1498 1497 1496 1495 1494 1493 1492 1491 1491 1490 1488 1486 1483 1482 1481 1479 1477 1476 1473 1470 1469 1469 1467 1466 1466 1465 1465 1466 1467
1492 1494 1494 1494 1494 1495 1496 1497 1499 1499 1499 1500 1500 1500 1499 1498 1497 1497 1497 1496 1494 1493 1493 1492 1491 1489 1488 1487 1485 1482 1480 1478 1475 1473 1473 1473 1472 1469 1468 1467 1466 1466 1465
1492 1493 1494 1494 1494 1494 1495 1497 1498 1499 1499 1500 1501 1501 1500 1499 1498 1498 1497 1497 1497 1496 1495 1494 1493 1491 1490 1488 1486 1484 1482 1479 1477 1477 1476 1476 1475 1472 1471 1469 1467 1466 1465
1491 1493 1494 1494 1494 1494 1495 1497 1498 1499 1499 1500 1501 1501 1501 1501 1500 1499 1498 1498 1497 1497 1497 1496 1495 1493 1492 1491 1490 1488 1486 1484 1481 1478 1477 1476 1476 1473 1471 1471 1469 1468 1466
1489 1491 1493 1494 1494 1494 1495 1496 1497 1498 1499 1500 1501 1501 1501 1501 1501 1500 1499 1498 1497 1497 1497 1496 1495 1494 1493 1491 1490 1489 1486 1483 1480 1478 1476 1475 1475 1474 1472 1470 1469 1469 1467
1487 1489 1491 1492 1492 1493 1494 1496 1496 1497 1499 1500 1501 1502 1501 1501 1501 1500 1499 1497 1496 1496 1496 1496 1495 1494 1493 1492 1490 1488 1486 1483 1481 1479 1478 1477 1477 1474 1471 1469 1467 1466 1465
1484 1486 1488 1490 1491 1492 1494 1495 1496 1497 1499 1501 1501 1501 1501 1500 1500 1499 1499 1498 1497 1496 1496 1495 1493 1492 1491 1490 1489 1488 1485 1482 1480 1479 1478 1476 1473 1472 1468 1466 1465 1465 1463
1480 1482 1486 1488 1490 1492 1494 1495 1496 1497 1499 1500 1500 1501 1500 1500 1500 1499 1498 1497 1496 1496 1495 1494 1493 1491 1490 1489 1488 1487 1484 1482 1481 1479 1477 1475 1474 1473 1471 1467 1468 1467 1464
1480 1482 1484 1486 1488 1490 1493 1494 1496 1497 1498 1499 1499 1500 1500 1500 1500 1499 1498 1496 1495 1494 1494 1493 1491 1490 1489 1488 1487 1486 1484 1482 1480 1480 1478 1476 1473 1472 1471 1470 1469 1468 1464
1480 1481 1483 1485 1487 1489 1491 1493 1495 1497 1498 1499 1499 1500 1500 1500 1499 1498 1498 1496 1495 1494 1493 1492 1490 1490 1489 1488 1487 1486 1484 1483 1481 1479 1477 1475 1473 1471 1469 1467 1467 1465 1463
1479 1481 1482 1484 1487 1489 1491 1492 1494 1496 1497 1498 1499 1500 1500 1499 1498 1497 1497 1496 1495 1494 1493 1492 1492 1491 1491 1490 1488 1487 1485 1483 1482 1481 1479 1476 1473 1470 1468 1466 1465 1464 1463
1477 1479 1481 1483 1485 1487 1489 1491 1492 1494 1496 1497 1498 1499 1499 1499 1498 1497 1495 1495 1494 1493 1493 1493 1492 1491 1490 1489 1488 1485 1483 1482 1480 1479 1479 1476 1475 1472 1469 1466 1464 1463 1462
1473 1476 1478 1480 1482 1483 1485 1487 1489 1490 1493 1494 1494 1496 1497 1497 1496 1495 1494 1493 1493 1492 1491 1491 1490 1489 1488 1487 1486 1484 1482 1480 1479 1477 1476 1475 1473 1471 1469 1467 1464 1463 1462
1469 1471 1474 1476 1479 1480 1482 1483 1484 1486 1489 1490 1490 1492 1492 1493 1493 1492 1492 1491 1491 1490 1489 1489 1488 1487 1486 1485 1484 1482 1481 1480 1478 1476 1475 1473 1471 1470 1467 1465 1463 1462 1461
1464 1467 1469 1471 1474 1476 1478 1479 1481 1483 1484 1485 1486 1487 1488 1489 1489 1489 1488 1487 1486 1486 1486 1485 1484 1484 1483 1482 1480 1479 1478 1477 1476 1474 1473 1471 1470 1468 1466 1465 1463 1461 1459
1459 1462 1464 1466 1468 1471 1474 1476 1477 1478 1479 1480 1481 1482 1483 1484 1484 1484 1483 1483 1483 1482 1481 1480 1480 1479 1479 1478 1477 1476 1474 1473 1472 1471 1470 1469 1468 1466 1465 1464 1462 1461 1459
1452 1455 1458 1460 1462 1465 1467 1469 1471 1472 1473 1475 1476 1477 1477 1478 1478 1478 1478 1478 1477 1477 1477 1477 1476 1476 1476 1475 1474 1473 1471 1470 1470 1469 1468 1467 1465 1464 1463 1461 1460 1459 1457
1445 1447 1450 1453 1455 1458 1460 1463 1465 1466 1468 1469 1470 1471 1471 1472 1473 1473 1473 1473 1472 1473 1473 1473 1473 1472 1472 1471 1470 1469 1468 1467 1467 1466 1465 1464 1463 1461 1460 1458 1457 1456 1454
1437 1440 1443 1446 1448 1450 1453 1456 1458 1460 1461 1463 1463 1465 1466 1467 1468 1468 1468 1467 1467 1468 1468 1468 1468 1468 1467 1466 1466 1465 1464 1463 1463 1462 1461 1460 1459 1458 1457 1455 1454 1453 1452